FENGYUN 1C DEB, 32133

Orbit data source: Space-Track

FENGYUN 1C DEB, 32133 is space debris in SSO originally from a launch on Mon, 10 May 1999 UTC launched from the Taiyaun Space Center, China (TSC). Fengyun 1C debris stems from the Chinese weather satellite Fengyun-1C, which was intentionally destroyed by a Chinese anti-satellite missile in 2007. This event dramatically increased the amount of space debris, with thousands of trackable fragments posing hazards to satellites and human spaceflight. The Fengyun 1C debris cloud has become a focal point in discussions about space sustainability and the need for international regulations to prevent the creation of new debris.

Loading next visibility...
Identifier
32133, 1999-025CSB
Orbit
SSO
Country
Flag of CNCN / PRC
Related business
Manufacturer
Unknown
Mission
Spacecraft
Bus & Motor
Unknown
Mass
Unknown
Launch date (UTC)
1999-05-10 (27 years ago)
Launch vehicle
Unknown
Launch site
Taiyaun Space Center, China (TSC)
Object type
Payload
Rocket body
Debris
Shape & HBR
Unknown shape, 0.1 m
Radar Cross Section
Medium (>0.1 m² and <1 m²)

Expand to show TLE details & history
Last TLE update: 3 days ago

TLE from 3 days ago
0 FENGYUN 1C DEB
1 32133U 99025CSB 26165.70464321  .00000228  00000-0  13023-3 0  9998
2 32133  98.4367 162.8267 0033972 289.4976  70.2532 14.18222738975820
Epoch: 2026-06-14T16:54Z
TLE epoch observation values (Epoch: 2026-06-14T16:54:41.173Z)
Latitude
-0.00001°
Longitude
6.15359°
Altitude
826.087 km
Speed
7.444 km/s
True Right ascension
10h 51m 18s
True Declination
0° 00' 00"
Sunlit
Object was in daylight at epoch
Visualization orbit readout
Latitude
Unknown
Longitude
Unknown
Altitude
Unknown
Speed
Unknown
Apparent Right ascension
Unknown
Apparent Declination
Unknown
Sunlit
N/A
Visualization observer readout
Local Sidereal Time
23:23:09
Azimuth
Unknown
Elevation
Unknown
Doppler factor
Unknown
Orbital elements
Apogee altitude
853 km
Perigee altitude
804.035 km
Semi-major axis
7,206.655 km
Eccentricity
0.0034
Inclination
98.4367°
RAAN
162.8267°
Arg. of periapsis
289.4976°
True anomaly
70.62012°
Mean anomaly
70.2532°
Eccentric anomaly
70.43661°
Mean motion
3.54766 °/min
Orbital period
101.48 mins
BSTAR
0.00013023
Loading maneuver chart data...
Computing Atmospheric mass density...
Loading historical data...
Loading historical data...
Loading historical data...
Loading historical data...
Loading historical data...
Loading historical data...
Loading historical data...

Documentation

Showing up to 5 results
|